Data supplied by UK-AIR on 5/4/2008
All Data GMT hour ending 
Status: R =Ratified P=Provisional,P*=As supplied
,,Sheffield Tinsley,,,,,,,,,,,,,,,,,,,,,,,
Date,time,"Carbon monoxide",status,unit,"Nitric oxide",status,unit,"Nitrogen dioxide",status,unit,"Nitrogen oxides as nitrogen dioxide",status,unit
 
01-01-1991,01:00,,,,,,,,,,,,
01-01-1991,02:00,,,,21,R,ugm-3,32,R,ugm-3,65,R,ugm-3
01-01-1991,03:00,,,,18,R,ugm-3,27,R,ugm-3,53,R,ugm-3
01-01-1991,04:00,,,,15,R,ugm-3,25,R,ugm-3,48,R,ugm-3
01-01-1991,05:00,,,,15,R,ugm-3,13,R,ugm-3,36,R,ugm-3
01-01-1991,06:00,,,,14,R,ugm-3,15,R,ugm-3,36,R,ugm-3
01-01-1991,07:00,,,,15,R,ugm-3,10,R,ugm-3,32,R,ugm-3
01-01-1991,08:00,,,,16,R,ugm-3,13,R,ugm-3,38,R,ugm-3
01-01-1991,09:00,,,,18,R,ugm-3,15,R,ugm-3,42,R,ugm-3
01-01-1991,10:00,,,,20,R,ugm-3,19,R,ugm-3,50,R,ugm-3
01-01-1991,11:00,,,,31,R,ugm-3,34,R,ugm-3,82,R,ugm-3
01-01-1991,12:00,,,,44,R,ugm-3,36,R,ugm-3,103,R,ugm-3
01-01-1991,13:00,,,,39,R,ugm-3,32,R,ugm-3,92,R,ugm-3
01-01-1991,14:00,,,,34,R,ugm-3,29,R,ugm-3,80,R,ugm-3
01-01-1991,15:00,,,,39,R,ugm-3,31,R,ugm-3,90,R,ugm-3
01-01-1991,16:00,,,,43,R,ugm-3,38,R,ugm-3,103,R,ugm-3
01-01-1991,17:00,,,,31,R,ugm-3,23,R,ugm-3,71,R,ugm-3
01-01-1991,18:00,,,,31,R,ugm-3,23,R,ugm-3,71,R,ugm-3
01-01-1991,19:00,,,,24,R,ugm-3,21,R,ugm-3,57,R,ugm-3
01-01-1991,20:00,,,,21,R,ugm-3,19,R,ugm-3,52,R,ugm-3
01-01-1991,21:00,,,,21,R,ugm-3,23,R,ugm-3,55,R,ugm-3
01-01-1991,22:00,,,,18,R,ugm-3,15,R,ugm-3,42,R,ugm-3
01-01-1991,23:00,,,,18,R,ugm-3,17,R,ugm-3,44,R,ugm-3
01-01-1991,24:00,,,,20,R,ugm-3,25,R,ugm-3,55,R,ugm-3
02-01-1991,01:00,,,,24,R,ugm-3,31,R,ugm-3,67,R,ugm-3
02-01-1991,02:00,,,,16,R,ugm-3,4,R,ugm-3,29,R,ugm-3
02-01-1991,03:00,,,,15,R,ugm-3,6,R,ugm-3,29,R,ugm-3
02-01-1991,04:00,,,,15,R,ugm-3,4,R,ugm-3,27,R,ugm-3
02-01-1991,05:00,,,,16,R,ugm-3,6,R,ugm-3,31,R,ugm-3
02-01-1991,06:00,,,,26,R,ugm-3,17,R,ugm-3,57,R,ugm-3
02-01-1991,07:00,,,,41,R,ugm-3,21,R,ugm-3,84,R,ugm-3
02-01-1991,08:00,,,,128,R,ugm-3,73,R,ugm-3,267,R,ugm-3
02-01-1991,09:00,,,,145,R,ugm-3,74,R,ugm-3,296,R,ugm-3
02-01-1991,10:00,,,,91,R,ugm-3,50,R,ugm-3,189,R,ugm-3
02-01-1991,11:00,,,,145,R,ugm-3,88,R,ugm-3,309,R,ugm-3
02-01-1991,12:00,,,,136,R,ugm-3,82,R,ugm-3,290,R,ugm-3
02-01-1991,13:00,,,,180,R,ugm-3,109,R,ugm-3,384,R,ugm-3
02-01-1991,14:00,,,,225,R,ugm-3,118,R,ugm-3,462,R,ugm-3
02-01-1991,15:00,,,,123,R,ugm-3,52,R,ugm-3,239,R,ugm-3
02-01-1991,16:00,,,,138,R,ugm-3,59,R,ugm-3,269,R,ugm-3
02-01-1991,17:00,,,,71,R,ugm-3,42,R,ugm-3,151,R,ugm-3
02-01-1991,18:00,,,,73,R,ugm-3,44,R,ugm-3,155,R,ugm-3
02-01-1991,19:00,,,,75,R,ugm-3,46,R,ugm-3,160,R,ugm-3
02-01-1991,20:00,,,,129,R,ugm-3,101,R,ugm-3,298,R,ugm-3
02-01-1991,21:00,,,,74,R,ugm-3,59,R,ugm-3,172,R,ugm-3
02-01-1991,22:00,,,,36,R,ugm-3,36,R,ugm-3,92,R,ugm-3
02-01-1991,23:00,,,,34,R,ugm-3,38,R,ugm-3,90,R,ugm-3
02-01-1991,24:00,,,,38,R,ugm-3,38,R,ugm-3,96,R,ugm-3
03-01-1991,01:00,,,,145,R,ugm-3,145,R,ugm-3,367,R,ugm-3
03-01-1991,02:00,,,,106,R,ugm-3,118,R,ugm-3,281,R,ugm-3
03-01-1991,03:00,,,,143,R,ugm-3,111,R,ugm-3,329,R,ugm-3
03-01-1991,04:00,,,,135,R,ugm-3,107,R,ugm-3,313,R,ugm-3
03-01-1991,05:00,,,,94,R,ugm-3,76,R,ugm-3,220,R,ugm-3
03-01-1991,06:00,,,,136,R,ugm-3,126,R,ugm-3,334,R,ugm-3
03-01-1991,07:00,,,,115,R,ugm-3,120,R,ugm-3,296,R,ugm-3
03-01-1991,08:00,,,,175,R,ugm-3,130,R,ugm-3,397,R,ugm-3
03-01-1991,09:00,,,,238,R,ugm-3,157,R,ugm-3,520,R,ugm-3
03-01-1991,10:00,,,,240,R,ugm-3,164,R,ugm-3,531,R,ugm-3
03-01-1991,11:00,,,,225,R,ugm-3,126,R,ugm-3,470,R,ugm-3
03-01-1991,12:00,,,,176,R,ugm-3,78,R,ugm-3,348,R,ugm-3
03-01-1991,13:00,,,,115,R,ugm-3,57,R,ugm-3,233,R,ugm-3
03-01-1991,14:00,,,,135,R,ugm-3,76,R,ugm-3,283,R,ugm-3
03-01-1991,15:00,,,,119,R,ugm-3,59,R,ugm-3,241,R,ugm-3
03-01-1991,16:00,,,,145,R,ugm-3,86,R,ugm-3,308,R,ugm-3
03-01-1991,17:00,,,,195,R,ugm-3,96,R,ugm-3,393,R,ugm-3
03-01-1991,18:00,,,,275,R,ugm-3,145,R,ugm-3,565,R,ugm-3
03-01-1991,19:00,,,,280,R,ugm-3,160,R,ugm-3,588,R,ugm-3
03-01-1991,20:00,,,,205,R,ugm-3,141,R,ugm-3,455,R,ugm-3
03-01-1991,21:00,,,,254,R,ugm-3,197,R,ugm-3,584,R,ugm-3
03-01-1991,22:00,,,,191,R,ugm-3,174,R,ugm-3,466,R,ugm-3
03-01-1991,23:00,,,,189,R,ugm-3,210,R,ugm-3,499,R,ugm-3
03-01-1991,24:00,,,,140,R,ugm-3,118,R,ugm-3,332,R,ugm-3
04-01-1991,01:00,,,,126,R,ugm-3,130,R,ugm-3,323,R,ugm-3
04-01-1991,02:00,,,,90,R,ugm-3,122,R,ugm-3,260,R,ugm-3
04-01-1991,03:00,,,,48,R,ugm-3,63,R,ugm-3,136,R,ugm-3
04-01-1991,04:00,,,,29,R,ugm-3,34,R,ugm-3,78,R,ugm-3
04-01-1991,05:00,,,,61,R,ugm-3,74,R,ugm-3,168,R,ugm-3
04-01-1991,06:00,,,,45,R,ugm-3,38,R,ugm-3,107,R,ugm-3
04-01-1991,07:00,,,,79,R,ugm-3,74,R,ugm-3,195,R,ugm-3
04-01-1991,08:00,,,,114,R,ugm-3,86,R,ugm-3,260,R,ugm-3
04-01-1991,09:00,,,,164,R,ugm-3,105,R,ugm-3,355,R,ugm-3
04-01-1991,10:00,,,,186,R,ugm-3,99,R,ugm-3,384,R,ugm-3
04-01-1991,11:00,,,,171,R,ugm-3,76,R,ugm-3,338,R,ugm-3
04-01-1991,12:00,,,,129,R,ugm-3,71,R,ugm-3,267,R,ugm-3
04-01-1991,13:00,,,,94,R,ugm-3,55,R,ugm-3,199,R,ugm-3
04-01-1991,14:00,,,,71,R,ugm-3,42,R,ugm-3,151,R,ugm-3
04-01-1991,15:00,,,,74,R,ugm-3,42,R,ugm-3,155,R,ugm-3
04-01-1991,16:00,,,,108,R,ugm-3,78,R,ugm-3,243,R,ugm-3
04-01-1991,17:00,,,,116,R,ugm-3,69,R,ugm-3,246,R,ugm-3
04-01-1991,18:00,,,,85,R,ugm-3,50,R,ugm-3,180,R,ugm-3
04-01-1991,19:00,,,,64,R,ugm-3,44,R,ugm-3,141,R,ugm-3
04-01-1991,20:00,,,,108,R,ugm-3,90,R,ugm-3,254,R,ugm-3
04-01-1991,21:00,,,,130,R,ugm-3,99,R,ugm-3,298,R,ugm-3
04-01-1991,22:00,,,,148,R,ugm-3,124,R,ugm-3,350,R,ugm-3
04-01-1991,23:00,,,,75,R,ugm-3,67,R,ugm-3,181,R,ugm-3
04-01-1991,24:00,,,,94,R,ugm-3,65,R,ugm-3,208,R,ugm-3
05-01-1991,01:00,,,,73,R,ugm-3,44,R,ugm-3,155,R,ugm-3
05-01-1991,02:00,,,,43,R,ugm-3,36,R,ugm-3,101,R,ugm-3
05-01-1991,03:00,,,,39,R,ugm-3,40,R,ugm-3,99,R,ugm-3
05-01-1991,04:00,,,,46,R,ugm-3,32,R,ugm-3,103,R,ugm-3
05-01-1991,05:00,,,,34,R,ugm-3,27,R,ugm-3,78,R,ugm-3
05-01-1991,06:00,,,,24,R,ugm-3,11,R,ugm-3,48,R,ugm-3
05-01-1991,07:00,,,,28,R,ugm-3,11,R,ugm-3,53,R,ugm-3
05-01-1991,08:00,,,,74,R,ugm-3,84,R,ugm-3,197,R,ugm-3
05-01-1991,09:00,,,,139,R,ugm-3,157,R,ugm-3,369,R,ugm-3
05-01-1991,10:00,,,,116,R,ugm-3,126,R,ugm-3,304,R,ugm-3
05-01-1991,11:00,,,,109,R,ugm-3,99,R,ugm-3,265,R,ugm-3
05-01-1991,12:00,,,,123,R,ugm-3,107,R,ugm-3,294,R,ugm-3
05-01-1991,13:00,,,,108,R,ugm-3,94,R,ugm-3,258,R,ugm-3
05-01-1991,14:00,,,,93,R,ugm-3,82,R,ugm-3,223,R,ugm-3
05-01-1991,15:00,,,,96,R,ugm-3,86,R,ugm-3,233,R,ugm-3
05-01-1991,16:00,,,,69,R,ugm-3,63,R,ugm-3,168,R,ugm-3
05-01-1991,17:00,,,,68,R,ugm-3,52,R,ugm-3,155,R,ugm-3
05-01-1991,18:00,,,,71,R,ugm-3,59,R,ugm-3,168,R,ugm-3
05-01-1991,19:00,,,,65,R,ugm-3,59,R,ugm-3,159,R,ugm-3
05-01-1991,20:00,,,,65,R,ugm-3,71,R,ugm-3,170,R,ugm-3
05-01-1991,21:00,,,,54,R,ugm-3,63,R,ugm-3,145,R,ugm-3
05-01-1991,22:00,,,,65,R,ugm-3,84,R,ugm-3,183,R,ugm-3
05-01-1991,23:00,,,,58,R,ugm-3,71,R,ugm-3,159,R,ugm-3
05-01-1991,24:00,,,,65,R,ugm-3,80,R,ugm-3,180,R,ugm-3
06-01-1991,01:00,,,,28,R,ugm-3,25,R,ugm-3,67,R,ugm-3
06-01-1991,02:00,,,,16,R,ugm-3,10,R,ugm-3,34,R,ugm-3
06-01-1991,03:00,,,,15,R,ugm-3,6,R,ugm-3,29,R,ugm-3
06-01-1991,04:00,,,,15,R,ugm-3,4,R,ugm-3,27,R,ugm-3
06-01-1991,05:00,,,,15,R,ugm-3,6,R,ugm-3,29,R,ugm-3
06-01-1991,06:00,,,,14,R,ugm-3,8,R,ugm-3,29,R,ugm-3
06-01-1991,07:00,,,,15,R,ugm-3,11,R,ugm-3,34,R,ugm-3
06-01-1991,08:00,,,,15,R,ugm-3,11,R,ugm-3,34,R,ugm-3
06-01-1991,09:00,,,,18,R,ugm-3,15,R,ugm-3,42,R,ugm-3
06-01-1991,10:00,,,,20,R,ugm-3,17,R,ugm-3,48,R,ugm-3
06-01-1991,11:00,,,,28,R,ugm-3,17,R,ugm-3,59,R,ugm-3
06-01-1991,12:00,,,,31,R,ugm-3,23,R,ugm-3,71,R,ugm-3
06-01-1991,13:00,,,,35,R,ugm-3,25,R,ugm-3,78,R,ugm-3
06-01-1991,14:00,,,,39,R,ugm-3,32,R,ugm-3,92,R,ugm-3
06-01-1991,15:00,,,,53,R,ugm-3,42,R,ugm-3,122,R,ugm-3
06-01-1991,16:00,,,,69,R,ugm-3,48,R,ugm-3,153,R,ugm-3
06-01-1991,17:00,,,,91,R,ugm-3,63,R,ugm-3,202,R,ugm-3
06-01-1991,18:00,,,,129,R,ugm-3,113,R,ugm-3,309,R,ugm-3
06-01-1991,19:00,,,,170,R,ugm-3,122,R,ugm-3,382,R,ugm-3
06-01-1991,20:00,,,,159,R,ugm-3,126,R,ugm-3,369,R,ugm-3
06-01-1991,21:00,,,,116,R,ugm-3,141,R,ugm-3,319,R,ugm-3
06-01-1991,22:00,,,,84,R,ugm-3,76,R,ugm-3,204,R,ugm-3
06-01-1991,23:00,,,,66,R,ugm-3,52,R,ugm-3,153,R,ugm-3
06-01-1991,24:00,,,,81,R,ugm-3,69,R,ugm-3,193,R,ugm-3
07-01-1991,01:00,,,,55,R,ugm-3,69,R,ugm-3,153,R,ugm-3
07-01-1991,02:00,,,,54,R,ugm-3,48,R,ugm-3,130,R,ugm-3
07-01-1991,03:00,,,,48,R,ugm-3,55,R,ugm-3,128,R,ugm-3
07-01-1991,04:00,,,,53,R,ugm-3,50,R,ugm-3,130,R,ugm-3
07-01-1991,05:00,,,,74,R,ugm-3,48,R,ugm-3,160,R,ugm-3
07-01-1991,06:00,,,,184,R,ugm-3,57,R,ugm-3,338,R,ugm-3
07-01-1991,07:00,,,,240,R,ugm-3,76,R,ugm-3,443,R,ugm-3
07-01-1991,08:00,,,,111,R,ugm-3,53,R,ugm-3,223,R,ugm-3
07-01-1991,09:00,,,,190,R,ugm-3,69,R,ugm-3,359,R,ugm-3
07-01-1991,10:00,,,,158,R,ugm-3,80,R,ugm-3,321,R,ugm-3
07-01-1991,11:00,,,,120,R,ugm-3,61,R,ugm-3,244,R,ugm-3
07-01-1991,12:00,,,,111,R,ugm-3,61,R,ugm-3,231,R,ugm-3
07-01-1991,13:00,,,,100,R,ugm-3,59,R,ugm-3,212,R,ugm-3
07-01-1991,14:00,,,,141,R,ugm-3,71,R,ugm-3,287,R,ugm-3
07-01-1991,15:00,,,,143,R,ugm-3,76,R,ugm-3,294,R,ugm-3
07-01-1991,16:00,,,,105,R,ugm-3,65,R,ugm-3,225,R,ugm-3
07-01-1991,17:00,,,,121,R,ugm-3,71,R,ugm-3,256,R,ugm-3
07-01-1991,18:00,,,,104,R,ugm-3,69,R,ugm-3,227,R,ugm-3
07-01-1991,19:00,,,,101,R,ugm-3,63,R,ugm-3,218,R,ugm-3
07-01-1991,20:00,,,,51,R,ugm-3,34,R,ugm-3,113,R,ugm-3
07-01-1991,21:00,,,,60,R,ugm-3,59,R,ugm-3,151,R,ugm-3
07-01-1991,22:00,,,,88,R,ugm-3,90,R,ugm-3,223,R,ugm-3
07-01-1991,23:00,,,,78,R,ugm-3,92,R,ugm-3,210,R,ugm-3
07-01-1991,24:00,,,,146,R,ugm-3,120,R,ugm-3,344,R,ugm-3
08-01-1991,01:00,,,,139,R,ugm-3,134,R,ugm-3,346,R,ugm-3
08-01-1991,02:00,,,,126,R,ugm-3,117,R,ugm-3,309,R,ugm-3
08-01-1991,03:00,,,,133,R,ugm-3,130,R,ugm-3,332,R,ugm-3
08-01-1991,04:00,,,,98,R,ugm-3,94,R,ugm-3,243,R,ugm-3
08-01-1991,05:00,,,,96,R,ugm-3,82,R,ugm-3,229,R,ugm-3
08-01-1991,06:00,,,,136,R,ugm-3,143,R,ugm-3,351,R,ugm-3
08-01-1991,07:00,,,,141,R,ugm-3,122,R,ugm-3,338,R,ugm-3
08-01-1991,08:00,,,,156,R,ugm-3,132,R,ugm-3,371,R,ugm-3
08-01-1991,09:00,,,,156,R,ugm-3,113,R,ugm-3,351,R,ugm-3
08-01-1991,10:00,,,,195,R,ugm-3,120,R,ugm-3,418,R,ugm-3
08-01-1991,11:00,,,,206,R,ugm-3,111,R,ugm-3,426,R,ugm-3
08-01-1991,12:00,,,,211,R,ugm-3,103,R,ugm-3,426,R,ugm-3
08-01-1991,13:00,,,,185,R,ugm-3,88,R,ugm-3,371,R,ugm-3
08-01-1991,14:00,,,,138,R,ugm-3,71,R,ugm-3,281,R,ugm-3
08-01-1991,15:00,,,,86,R,ugm-3,69,R,ugm-3,201,R,ugm-3
08-01-1991,16:00,,,,73,R,ugm-3,63,R,ugm-3,174,R,ugm-3
08-01-1991,17:00,,,,88,R,ugm-3,63,R,ugm-3,197,R,ugm-3
08-01-1991,18:00,,,,186,R,ugm-3,74,R,ugm-3,359,R,ugm-3
08-01-1991,19:00,,,,161,R,ugm-3,94,R,ugm-3,340,R,ugm-3
08-01-1991,20:00,,,,71,R,ugm-3,65,R,ugm-3,174,R,ugm-3
08-01-1991,21:00,,,,51,R,ugm-3,52,R,ugm-3,130,R,ugm-3
08-01-1991,22:00,,,,24,R,ugm-3,29,R,ugm-3,65,R,ugm-3
08-01-1991,23:00,,,,18,R,ugm-3,11,R,ugm-3,38,R,ugm-3
08-01-1991,24:00,,,,18,R,ugm-3,10,R,ugm-3,36,R,ugm-3
09-01-1991,01:00,,,,21,R,ugm-3,8,R,ugm-3,40,R,ugm-3
09-01-1991,02:00,,,,21,R,ugm-3,11,R,ugm-3,44,R,ugm-3
09-01-1991,03:00,,,,21,R,ugm-3,17,R,ugm-3,50,R,ugm-3
09-01-1991,04:00,,,,23,R,ugm-3,21,R,ugm-3,55,R,ugm-3
09-01-1991,05:00,,,,89,R,ugm-3,103,R,ugm-3,239,R,ugm-3
09-01-1991,06:00,,,,148,R,ugm-3,136,R,ugm-3,361,R,ugm-3
09-01-1991,07:00,,,,80,R,ugm-3,59,R,ugm-3,181,R,ugm-3
09-01-1991,08:00,,,,126,R,ugm-3,76,R,ugm-3,269,R,ugm-3
09-01-1991,09:00,,,,151,R,ugm-3,82,R,ugm-3,313,R,ugm-3
09-01-1991,10:00,,,,158,R,ugm-3,90,R,ugm-3,330,R,ugm-3
09-01-1991,11:00,,,,176,R,ugm-3,99,R,ugm-3,369,R,ugm-3
09-01-1991,12:00,,,,209,R,ugm-3,139,R,ugm-3,458,R,ugm-3
09-01-1991,13:00,,,,171,R,ugm-3,126,R,ugm-3,388,R,ugm-3
09-01-1991,14:00,,,,150,R,ugm-3,118,R,ugm-3,348,R,ugm-3
09-01-1991,15:00,,,,153,R,ugm-3,109,R,ugm-3,342,R,ugm-3
09-01-1991,16:00,,,,139,R,ugm-3,78,R,ugm-3,290,R,ugm-3
09-01-1991,17:00,,,,161,R,ugm-3,71,R,ugm-3,317,R,ugm-3
09-01-1991,18:00,,,,138,R,ugm-3,69,R,ugm-3,279,R,ugm-3
09-01-1991,19:00,,,,89,R,ugm-3,63,R,ugm-3,199,R,ugm-3
09-01-1991,20:00,,,,95,R,ugm-3,73,R,ugm-3,218,R,ugm-3
09-01-1991,21:00,,,,116,R,ugm-3,92,R,ugm-3,269,R,ugm-3
09-01-1991,22:00,,,,84,R,ugm-3,94,R,ugm-3,222,R,ugm-3
09-01-1991,23:00,,,,74,R,ugm-3,76,R,ugm-3,189,R,ugm-3
09-01-1991,24:00,,,,91,R,ugm-3,99,R,ugm-3,239,R,ugm-3
10-01-1991,01:00,,,,93,R,ugm-3,96,R,ugm-3,237,R,ugm-3
10-01-1991,02:00,,,,123,R,ugm-3,136,R,ugm-3,323,R,ugm-3
10-01-1991,03:00,,,,83,R,ugm-3,82,R,ugm-3,208,R,ugm-3
10-01-1991,04:00,,,,31,R,ugm-3,32,R,ugm-3,80,R,ugm-3
10-01-1991,05:00,,,,118,R,ugm-3,153,R,ugm-3,332,R,ugm-3
10-01-1991,06:00,,,,68,R,ugm-3,76,R,ugm-3,180,R,ugm-3
10-01-1991,07:00,,,,151,R,ugm-3,134,R,ugm-3,365,R,ugm-3
10-01-1991,08:00,,,,173,R,ugm-3,109,R,ugm-3,372,R,ugm-3
10-01-1991,09:00,,,,161,R,ugm-3,118,R,ugm-3,365,R,ugm-3
10-01-1991,10:00,,,,159,R,ugm-3,115,R,ugm-3,357,R,ugm-3
10-01-1991,11:00,,,,135,R,ugm-3,99,R,ugm-3,306,R,ugm-3
10-01-1991,12:00,,,,116,R,ugm-3,74,R,ugm-3,252,R,ugm-3
10-01-1991,13:00,,,,95,R,ugm-3,59,R,ugm-3,204,R,ugm-3
10-01-1991,14:00,,,,69,R,ugm-3,40,R,ugm-3,145,R,ugm-3
10-01-1991,15:00,,,,78,R,ugm-3,44,R,ugm-3,162,R,ugm-3
10-01-1991,16:00,,,,100,R,ugm-3,57,R,ugm-3,210,R,ugm-3
10-01-1991,17:00,,,,238,R,ugm-3,155,R,ugm-3,518,R,ugm-3
10-01-1991,18:00,,,,223,R,ugm-3,118,R,ugm-3,458,R,ugm-3
10-01-1991,19:00,,,,125,R,ugm-3,78,R,ugm-3,269,R,ugm-3
10-01-1991,20:00,,,,159,R,ugm-3,88,R,ugm-3,330,R,ugm-3
10-01-1991,21:00,,,,115,R,ugm-3,86,R,ugm-3,262,R,ugm-3
10-01-1991,22:00,,,,101,R,ugm-3,107,R,ugm-3,262,R,ugm-3
10-01-1991,23:00,,,,111,R,ugm-3,130,R,ugm-3,300,R,ugm-3
10-01-1991,24:00,,,,116,R,ugm-3,141,R,ugm-3,319,R,ugm-3
11-01-1991,01:00,,,,91,R,ugm-3,101,R,ugm-3,241,R,ugm-3
11-01-1991,02:00,,,,56,R,ugm-3,78,R,ugm-3,164,R,ugm-3
11-01-1991,03:00,,,,31,R,ugm-3,48,R,ugm-3,96,R,ugm-3
11-01-1991,04:00,,,,30,R,ugm-3,42,R,ugm-3,88,R,ugm-3
11-01-1991,05:00,,,,31,R,ugm-3,42,R,ugm-3,90,R,ugm-3
11-01-1991,06:00,,,,50,R,ugm-3,74,R,ugm-3,151,R,ugm-3
11-01-1991,07:00,,,,70,R,ugm-3,55,R,ugm-3,162,R,ugm-3
11-01-1991,08:00,,,,154,R,ugm-3,73,R,ugm-3,308,R,ugm-3
11-01-1991,09:00,,,,180,R,ugm-3,109,R,ugm-3,384,R,ugm-3
11-01-1991,10:00,,,,175,R,ugm-3,73,R,ugm-3,340,R,ugm-3
11-01-1991,11:00,,,,149,R,ugm-3,82,R,ugm-3,309,R,ugm-3
11-01-1991,12:00,,,,135,R,ugm-3,61,R,ugm-3,267,R,ugm-3
11-01-1991,13:00,,,,193,R,ugm-3,90,R,ugm-3,384,R,ugm-3
11-01-1991,14:00,,,,114,R,ugm-3,67,R,ugm-3,241,R,ugm-3
11-01-1991,15:00,,,,104,R,ugm-3,61,R,ugm-3,220,R,ugm-3
11-01-1991,16:00,,,,134,R,ugm-3,61,R,ugm-3,265,R,ugm-3
11-01-1991,17:00,,,,134,R,ugm-3,63,R,ugm-3,267,R,ugm-3
11-01-1991,18:00,,,,180,R,ugm-3,76,R,ugm-3,351,R,ugm-3
11-01-1991,19:00,,,,100,R,ugm-3,59,R,ugm-3,212,R,ugm-3
11-01-1991,20:00,,,,80,R,ugm-3,59,R,ugm-3,181,R,ugm-3
11-01-1991,21:00,,,,81,R,ugm-3,57,R,ugm-3,181,R,ugm-3
11-01-1991,22:00,,,,136,R,ugm-3,115,R,ugm-3,323,R,ugm-3
11-01-1991,23:00,,,,36,R,ugm-3,38,R,ugm-3,94,R,ugm-3
11-01-1991,24:00,,,,96,R,ugm-3,94,R,ugm-3,241,R,ugm-3
12-01-1991,01:00,,,,148,R,ugm-3,120,R,ugm-3,346,R,ugm-3
12-01-1991,02:00,,,,53,R,ugm-3,57,R,ugm-3,138,R,ugm-3
12-01-1991,03:00,,,,101,R,ugm-3,94,R,ugm-3,248,R,ugm-3
12-01-1991,04:00,,,,35,R,ugm-3,46,R,ugm-3,99,R,ugm-3
12-01-1991,05:00,,,,59,R,ugm-3,57,R,ugm-3,147,R,ugm-3
12-01-1991,06:00,,,,109,R,ugm-3,76,R,ugm-3,243,R,ugm-3
12-01-1991,07:00,,,,113,R,ugm-3,90,R,ugm-3,262,R,ugm-3
12-01-1991,08:00,,,,135,R,ugm-3,63,R,ugm-3,269,R,ugm-3
12-01-1991,09:00,,,,158,R,ugm-3,57,R,ugm-3,298,R,ugm-3
12-01-1991,10:00,,,,44,R,ugm-3,48,R,ugm-3,115,R,ugm-3
12-01-1991,11:00,,,,45,R,ugm-3,46,R,ugm-3,115,R,ugm-3
12-01-1991,12:00,,,,71,R,ugm-3,46,R,ugm-3,155,R,ugm-3
12-01-1991,13:00,,,,64,R,ugm-3,44,R,ugm-3,141,R,ugm-3
12-01-1991,14:00,,,,36,R,ugm-3,34,R,ugm-3,90,R,ugm-3
12-01-1991,15:00,,,,39,R,ugm-3,38,R,ugm-3,97,R,ugm-3
12-01-1991,16:00,,,,46,R,ugm-3,46,R,ugm-3,117,R,ugm-3
12-01-1991,17:00,,,,54,R,ugm-3,52,R,ugm-3,134,R,ugm-3
12-01-1991,18:00,,,,83,R,ugm-3,53,R,ugm-3,180,R,ugm-3
12-01-1991,19:00,,,,255,R,ugm-3,48,R,ugm-3,437,R,ugm-3
12-01-1991,20:00,,,,49,R,ugm-3,55,R,ugm-3,130,R,ugm-3
12-01-1991,21:00,,,,69,R,ugm-3,55,R,ugm-3,160,R,ugm-3
12-01-1991,22:00,,,,131,R,ugm-3,55,R,ugm-3,256,R,ugm-3
12-01-1991,23:00,,,,149,R,ugm-3,55,R,ugm-3,283,R,ugm-3
12-01-1991,24:00,,,,65,R,ugm-3,53,R,ugm-3,153,R,ugm-3
13-01-1991,01:00,,,,51,R,ugm-3,52,R,ugm-3,130,R,ugm-3
13-01-1991,02:00,,,,53,R,ugm-3,67,R,ugm-3,147,R,ugm-3
13-01-1991,03:00,,,,33,R,ugm-3,57,R,ugm-3,107,R,ugm-3
13-01-1991,04:00,,,,24,R,ugm-3,52,R,ugm-3,88,R,ugm-3
13-01-1991,05:00,,,,31,R,ugm-3,52,R,ugm-3,99,R,ugm-3
13-01-1991,06:00,,,,40,R,ugm-3,52,R,ugm-3,113,R,ugm-3
13-01-1991,07:00,,,,68,R,ugm-3,61,R,ugm-3,164,R,ugm-3
13-01-1991,08:00,,,,155,R,ugm-3,55,R,ugm-3,292,R,ugm-3
13-01-1991,09:00,,,,229,R,ugm-3,55,R,ugm-3,405,R,ugm-3
13-01-1991,10:00,,,,270,R,ugm-3,61,R,ugm-3,474,R,ugm-3
13-01-1991,11:00,,,,291,R,ugm-3,63,R,ugm-3,508,R,ugm-3
13-01-1991,12:00,,,,283,R,ugm-3,69,R,ugm-3,500,R,ugm-3
13-01-1991,13:00,,,,173,R,ugm-3,76,R,ugm-3,340,R,ugm-3
13-01-1991,14:00,,,,93,R,ugm-3,71,R,ugm-3,212,R,ugm-3
13-01-1991,15:00,,,,70,R,ugm-3,71,R,ugm-3,178,R,ugm-3
13-01-1991,16:00,,,,74,R,ugm-3,65,R,ugm-3,178,R,ugm-3
13-01-1991,17:00,,,,264,R,ugm-3,76,R,ugm-3,479,R,ugm-3
13-01-1991,18:00,,,,1025,R,ugm-3,76,R,ugm-3,1643,R,ugm-3
13-01-1991,19:00,,,,748,R,ugm-3,78,R,ugm-3,1220,R,ugm-3
13-01-1991,20:00,,,,614,R,ugm-3,69,R,ugm-3,1007,R,ugm-3
13-01-1991,21:00,,,,605,R,ugm-3,71,R,ugm-3,995,R,ugm-3
13-01-1991,22:00,,,,528,R,ugm-3,71,R,ugm-3,877,R,ugm-3
13-01-1991,23:00,,,,388,R,ugm-3,65,R,ugm-3,657,R,ugm-3
13-01-1991,24:00,,,,500,R,ugm-3,82,R,ugm-3,846,R,ugm-3
14-01-1991,01:00,,,,560,R,ugm-3,71,R,ugm-3,926,R,ugm-3
14-01-1991,02:00,,,,291,R,ugm-3,53,R,ugm-3,499,R,ugm-3
14-01-1991,03:00,,,,294,R,ugm-3,48,R,ugm-3,497,R,ugm-3
14-01-1991,04:00,,,,323,R,ugm-3,52,R,ugm-3,544,R,ugm-3
14-01-1991,05:00,,,,303,R,ugm-3,46,R,ugm-3,508,R,ugm-3
14-01-1991,06:00,,,,355,R,ugm-3,50,R,ugm-3,592,R,ugm-3
14-01-1991,07:00,,,,458,R,ugm-3,53,R,ugm-3,753,R,ugm-3
14-01-1991,08:00,,,,498,R,ugm-3,74,R,ugm-3,835,R,ugm-3
14-01-1991,09:00,,,,661,R,ugm-3,96,R,ugm-3,1106,R,ugm-3
14-01-1991,10:00,,,,554,R,ugm-3,94,R,ugm-3,940,R,ugm-3
14-01-1991,11:00,,,,386,R,ugm-3,94,R,ugm-3,684,R,ugm-3
14-01-1991,12:00,,,,446,R,ugm-3,103,R,ugm-3,785,R,ugm-3
14-01-1991,13:00,,,,198,R,ugm-3,82,R,ugm-3,384,R,ugm-3
14-01-1991,14:00,,,,196,R,ugm-3,88,R,ugm-3,388,R,ugm-3
14-01-1991,15:00,,,,221,R,ugm-3,88,R,ugm-3,426,R,ugm-3
14-01-1991,16:00,,,,224,R,ugm-3,88,R,ugm-3,430,R,ugm-3
14-01-1991,17:00,,,,245,R,ugm-3,78,R,ugm-3,453,R,ugm-3
14-01-1991,18:00,,,,240,R,ugm-3,73,R,ugm-3,439,R,ugm-3
14-01-1991,19:00,,,,150,R,ugm-3,63,R,ugm-3,292,R,ugm-3
14-01-1991,20:00,,,,66,R,ugm-3,46,R,ugm-3,147,R,ugm-3
14-01-1991,21:00,,,,66,R,ugm-3,53,R,ugm-3,155,R,ugm-3
14-01-1991,22:00,,,,60,R,ugm-3,52,R,ugm-3,143,R,ugm-3
14-01-1991,23:00,,,,50,R,ugm-3,52,R,ugm-3,128,R,ugm-3
14-01-1991,24:00,,,,30,R,ugm-3,40,R,ugm-3,86,R,ugm-3
15-01-1991,01:00,,,,23,R,ugm-3,32,R,ugm-3,67,R,ugm-3
15-01-1991,02:00,,,,18,R,ugm-3,29,R,ugm-3,55,R,ugm-3
15-01-1991,03:00,,,,19,R,ugm-3,23,R,ugm-3,52,R,ugm-3
15-01-1991,04:00,,,,23,R,ugm-3,32,R,ugm-3,67,R,ugm-3
15-01-1991,05:00,,,,31,R,ugm-3,36,R,ugm-3,84,R,ugm-3
15-01-1991,06:00,,,,40,R,ugm-3,38,R,ugm-3,99,R,ugm-3
15-01-1991,07:00,,,,81,R,ugm-3,42,R,ugm-3,166,R,ugm-3
15-01-1991,08:00,,,,354,R,ugm-3,48,R,ugm-3,588,R,ugm-3
15-01-1991,09:00,,,,608,R,ugm-3,73,R,ugm-3,1001,R,ugm-3
15-01-1991,10:00,,,,630,R,ugm-3,80,R,ugm-3,1043,R,ugm-3
15-01-1991,11:00,,,,315,R,ugm-3,67,R,ugm-3,548,R,ugm-3
15-01-1991,12:00,,,,250,R,ugm-3,74,R,ugm-3,456,R,ugm-3
15-01-1991,13:00,,,,148,R,ugm-3,55,R,ugm-3,281,R,ugm-3
15-01-1991,14:00,,,,84,R,ugm-3,46,R,ugm-3,174,R,ugm-3
15-01-1991,15:00,,,,80,R,ugm-3,44,R,ugm-3,166,R,ugm-3
15-01-1991,16:00,,,,160,R,ugm-3,52,R,ugm-3,296,R,ugm-3
15-01-1991,17:00,,,,384,R,ugm-3,55,R,ugm-3,642,R,ugm-3
15-01-1991,18:00,,,,243,R,ugm-3,52,R,ugm-3,422,R,ugm-3
15-01-1991,19:00,,,,358,R,ugm-3,55,R,ugm-3,602,R,ugm-3
15-01-1991,20:00,,,,296,R,ugm-3,44,R,ugm-3,497,R,ugm-3
15-01-1991,21:00,,,,271,R,ugm-3,46,R,ugm-3,460,R,ugm-3
15-01-1991,22:00,,,,218,R,ugm-3,50,R,ugm-3,382,R,ugm-3
15-01-1991,23:00,,,,254,R,ugm-3,50,R,ugm-3,437,R,ugm-3
15-01-1991,24:00,,,,248,R,ugm-3,44,R,ugm-3,422,R,ugm-3
16-01-1991,01:00,,,,205,R,ugm-3,44,R,ugm-3,357,R,ugm-3
16-01-1991,02:00,,,,110,R,ugm-3,46,R,ugm-3,214,R,ugm-3
16-01-1991,03:00,,,,114,R,ugm-3,46,R,ugm-3,220,R,ugm-3
16-01-1991,04:00,,,,90,R,ugm-3,48,R,ugm-3,185,R,ugm-3
16-01-1991,05:00,,,,168,R,ugm-3,57,R,ugm-3,313,R,ugm-3
16-01-1991,06:00,,,,244,R,ugm-3,52,R,ugm-3,424,R,ugm-3
16-01-1991,07:00,,,,336,R,ugm-3,53,R,ugm-3,567,R,ugm-3
16-01-1991,08:00,,,,436,R,ugm-3,53,R,ugm-3,720,R,ugm-3
16-01-1991,09:00,,,,1006,R,ugm-3,67,R,ugm-3,1604,R,ugm-3
16-01-1991,10:00,,,,1038,R,ugm-3,84,R,ugm-3,1669,R,ugm-3
16-01-1991,11:00,,,,635,R,ugm-3,76,R,ugm-3,1047,R,ugm-3
16-01-1991,12:00,,,,498,R,ugm-3,76,R,ugm-3,837,R,ugm-3
16-01-1991,13:00,,,,324,R,ugm-3,78,R,ugm-3,573,R,ugm-3
16-01-1991,14:00,,,,243,R,ugm-3,73,R,ugm-3,443,R,ugm-3
16-01-1991,15:00,,,,304,R,ugm-3,71,R,ugm-3,535,R,ugm-3
16-01-1991,16:00,,,,283,R,ugm-3,65,R,ugm-3,497,R,ugm-3
16-01-1991,17:00,,,,288,R,ugm-3,57,R,ugm-3,497,R,ugm-3
16-01-1991,18:00,,,,340,R,ugm-3,53,R,ugm-3,573,R,ugm-3
16-01-1991,19:00,,,,389,R,ugm-3,57,R,ugm-3,651,R,ugm-3
16-01-1991,20:00,,,,384,R,ugm-3,59,R,ugm-3,646,R,ugm-3
16-01-1991,21:00,,,,411,R,ugm-3,53,R,ugm-3,682,R,ugm-3
16-01-1991,22:00,,,,333,R,ugm-3,57,R,ugm-3,565,R,ugm-3
16-01-1991,23:00,,,,343,R,ugm-3,50,R,ugm-3,573,R,ugm-3
16-01-1991,24:00,,,,259,R,ugm-3,46,R,ugm-3,441,R,ugm-3
17-01-1991,01:00,,,,244,R,ugm-3,50,R,ugm-3,422,R,ugm-3
17-01-1991,02:00,,,,155,R,ugm-3,44,R,ugm-3,281,R,ugm-3
17-01-1991,03:00,,,,83,R,ugm-3,42,R,ugm-3,168,R,ugm-3
17-01-1991,04:00,,,,68,R,ugm-3,46,R,ugm-3,149,R,ugm-3
17-01-1991,05:00,,,,68,R,ugm-3,46,R,ugm-3,149,R,ugm-3
17-01-1991,06:00,,,,91,R,ugm-3,46,R,ugm-3,185,R,ugm-3
17-01-1991,07:00,,,,128,R,ugm-3,52,R,ugm-3,246,R,ugm-3
17-01-1991,08:00,,,,139,R,ugm-3,57,R,ugm-3,269,R,ugm-3
17-01-1991,09:00,,,,159,R,ugm-3,55,R,ugm-3,298,R,ugm-3
17-01-1991,10:00,,,,159,R,ugm-3,55,R,ugm-3,298,R,ugm-3
17-01-1991,11:00,,,,134,R,ugm-3,67,R,ugm-3,271,R,ugm-3
17-01-1991,12:00,,,,144,R,ugm-3,69,R,ugm-3,288,R,ugm-3
17-01-1991,13:00,,,,171,R,ugm-3,78,R,ugm-3,340,R,ugm-3
17-01-1991,14:00,,,,156,R,ugm-3,73,R,ugm-3,311,R,ugm-3
17-01-1991,15:00,,,,190,R,ugm-3,117,R,ugm-3,407,R,ugm-3
17-01-1991,16:00,,,,148,R,ugm-3,88,R,ugm-3,313,R,ugm-3
17-01-1991,17:00,,,,231,R,ugm-3,94,R,ugm-3,447,R,ugm-3
17-01-1991,18:00,,,,278,R,ugm-3,94,R,ugm-3,518,R,ugm-3
17-01-1991,19:00,,,,249,R,ugm-3,105,R,ugm-3,485,R,ugm-3
17-01-1991,20:00,,,,160,R,ugm-3,90,R,ugm-3,334,R,ugm-3
17-01-1991,21:00,,,,249,R,ugm-3,145,R,ugm-3,525,R,ugm-3
17-01-1991,22:00,,,,151,R,ugm-3,88,R,ugm-3,319,R,ugm-3
17-01-1991,23:00,,,,168,R,ugm-3,73,R,ugm-3,329,R,ugm-3
17-01-1991,24:00,,,,105,R,ugm-3,59,R,ugm-3,220,R,ugm-3
18-01-1991,01:00,,,,133,R,ugm-3,52,R,ugm-3,254,R,ugm-3
18-01-1991,02:00,,,,185,R,ugm-3,59,R,ugm-3,342,R,ugm-3
18-01-1991,03:00,,,,178,R,ugm-3,61,R,ugm-3,332,R,ugm-3
18-01-1991,04:00,,,,200,R,ugm-3,61,R,ugm-3,367,R,ugm-3
18-01-1991,05:00,,,,205,R,ugm-3,57,R,ugm-3,371,R,ugm-3
18-01-1991,06:00,,,,196,R,ugm-3,55,R,ugm-3,355,R,ugm-3
18-01-1991,07:00,,,,169,R,ugm-3,50,R,ugm-3,308,R,ugm-3
18-01-1991,08:00,,,,253,R,ugm-3,46,R,ugm-3,432,R,ugm-3
18-01-1991,09:00,,,,269,R,ugm-3,46,R,ugm-3,456,R,ugm-3
18-01-1991,10:00,,,,200,R,ugm-3,48,R,ugm-3,353,R,ugm-3
18-01-1991,11:00,,,,151,R,ugm-3,42,R,ugm-3,273,R,ugm-3
18-01-1991,12:00,,,,123,R,ugm-3,40,R,ugm-3,227,R,ugm-3
18-01-1991,13:00,,,,153,R,ugm-3,46,R,ugm-3,279,R,ugm-3
18-01-1991,14:00,,,,156,R,ugm-3,40,R,ugm-3,279,R,ugm-3
18-01-1991,15:00,,,,144,R,ugm-3,50,R,ugm-3,269,R,ugm-3
18-01-1991,16:00,,,,123,R,ugm-3,52,R,ugm-3,239,R,ugm-3
18-01-1991,17:00,,,,130,R,ugm-3,55,R,ugm-3,254,R,ugm-3
18-01-1991,18:00,,,,143,R,ugm-3,55,R,ugm-3,273,R,ugm-3
18-01-1991,19:00,,,,118,R,ugm-3,52,R,ugm-3,231,R,ugm-3
18-01-1991,20:00,,,,100,R,ugm-3,53,R,ugm-3,206,R,ugm-3
18-01-1991,21:00,,,,71,R,ugm-3,59,R,ugm-3,168,R,ugm-3
18-01-1991,22:00,,,,49,R,ugm-3,48,R,ugm-3,122,R,ugm-3
18-01-1991,23:00,,,,75,R,ugm-3,73,R,ugm-3,187,R,ugm-3
18-01-1991,24:00,,,,133,R,ugm-3,138,R,ugm-3,340,R,ugm-3
19-01-1991,01:00,,,,28,R,ugm-3,42,R,ugm-3,84,R,ugm-3
19-01-1991,02:00,,,,24,R,ugm-3,38,R,ugm-3,74,R,ugm-3